Weather History for Crestview, FL

Change the Weather History Date:

Wednesday, November 30, 2011

  Actual Average Record
Temperature  
Mean Temperature 40 °F -  
Max Temperature 52 °F - - ()
Min Temperature 28 °F - - ()
Degree Days  
Heating Degree Days 24    
Moisture  
Dew Point 33 °F    
Average Humidity 74    
Maximum Humidity 93    
Minimum Humidity 50    
Precipitation  
Precipitation 0.00 in - - ()
Sea Level Pressure  
Sea Level Pressure 30.15 in    
Wind  
Wind Speed 7 mph (NNW)    
Max Wind Speed 13 mph    
Max Gust Speed 18 mph    
Visibility 10 miles    
Events      
T = Trace of Precipitation, MM = Missing Value Source: NWS Daily Summary

Daily Weather History Graph

Daily Weather History Graph

Search for Another Location

Airport:

Trip Planner

Search our weather history database for the weather conditions in past years. The results will help you decide how hot, cold, wet, or windy it might be!

Date:

Astronomy

Nov. 30, 2011 Rise Set
Actual Time 6:24 AM CST 4:44 PM CST
Civil Twilight 5:58 AM CST 5:10 PM CST
Nautical Twilight 5:28 AM CST 5:40 PM CST
Astronomical Twilight 4:59 AM CST 6:09 PM CST
Moon 10:53 AM CST (11/30) 10:27 PM CST (11/30)
Length of Visible Light 11h 12m
Length of Day
10h 19m
Waxing Crescent, 34% of the Moon is Illuminated
Nov 30
Waxing Crescent
Dec 2
First Quarter
Dec 10
Full
Dec 17
Last Quarter
Dec 24
New

Hourly Weather History & Observations

Time (CST) Temp. Windchill Dew Point Humidity Pressure Visibility Wind Dir Wind Speed Gust Speed Precip Events Conditions
12:31 AM 42.8 °F 37.5 °F 33.8 °F 70% 30.10 in 10.0 mi NNW 9.2 mph - N/A   Scattered Clouds
12:55 AM 41.5 °F 37.1 °F 34.0 °F 75% 30.11 in 10.0 mi NNW 6.9 mph - N/A   Clear
1:55 AM 39.7 °F 36.5 °F 33.8 °F 79% 30.11 in 10.0 mi NNW 4.6 mph - N/A   Clear
2:09 AM 39.2 °F 37.0 °F 33.8 °F 81% 30.11 in 10.0 mi NNW 3.5 mph - N/A   Mostly Cloudy
2:55 AM 41.7 °F 37.3 °F 34.7 °F 76% 30.12 in 10.0 mi NW 6.9 mph - N/A   Overcast
3:55 AM 42.1 °F 37.1 °F 34.7 °F 75% 30.12 in 10.0 mi North 8.1 mph - N/A   Overcast
4:07 AM 41.0 °F 38.0 °F 33.8 °F 76% 30.13 in 10.0 mi NNW 4.6 mph - N/A   Scattered Clouds
4:23 AM 41.0 °F 38.0 °F 35.6 °F 81% 30.13 in 10.0 mi NNW 4.6 mph - N/A   Mostly Cloudy
4:55 AM 41.0 °F 37.1 °F 34.5 °F 78% 30.13 in 10.0 mi NW 5.8 mph - N/A   Overcast
5:55 AM 41.0 °F 36.4 °F 33.4 °F 74% 30.15 in 10.0 mi NNW 6.9 mph - N/A   Overcast
6:19 AM 39.2 °F 33.6 °F 32.0 °F 75% 30.16 in 10.0 mi NNW 8.1 mph - N/A   Scattered Clouds
6:39 AM 39.2 °F 33.6 °F 32.0 °F 75% 30.17 in 10.0 mi NNW 8.1 mph - N/A   Mostly Cloudy
6:55 AM 39.6 °F 35.4 °F 32.4 °F 75% 30.16 in 10.0 mi NNW 5.8 mph - N/A   Mostly Cloudy
7:55 AM 40.5 °F 34.6 °F 32.9 °F 74% 30.17 in 10.0 mi North 9.2 mph - N/A   Overcast
8:55 AM 41.5 °F 36.4 °F 33.3 °F 72% 30.18 in 10.0 mi North 8.1 mph - N/A   Mostly Cloudy
9:55 AM 43.5 °F 38.9 °F 34.2 °F 70% 30.18 in 10.0 mi NNW 8.1 mph - N/A   Mostly Cloudy
10:55 AM 45.5 °F 41.3 °F 34.3 °F 65% 30.17 in 10.0 mi NW 8.1 mph - N/A   Mostly Cloudy
11:06 AM 46.4 °F 41.1 °F 33.8 °F 62% 30.16 in 10.0 mi NNW 11.5 mph - N/A   Scattered Clouds
11:55 AM 49.6 °F - 34.2 °F 55% 30.14 in 10.0 mi North 12.7 mph - N/A   Partly Cloudy
12:55 PM 52.0 °F - 34.0 °F 50% 30.12 in 10.0 mi NW 12.7 mph 18.4 mph N/A   Partly Cloudy
1:55 PM 52.7 °F - 34.3 °F 50% 30.11 in 10.0 mi NNW 11.5 mph - N/A   Partly Cloudy
2:55 PM 52.2 °F - 34.3 °F 51% 30.12 in 10.0 mi NNW 9.2 mph - N/A   Partly Cloudy
3:55 PM 50.2 °F - 34.2 °F 54% 30.13 in 10.0 mi NNW 9.2 mph - N/A   Partly Cloudy
4:55 PM 44.8 °F 43.3 °F 34.9 °F 68% 30.15 in 10.0 mi NNW 3.5 mph - N/A   Clear
5:55 PM 39.6 °F - 34.9 °F 83% 30.16 in 10.0 mi North 1.2 mph - N/A   Clear
6:55 PM 36.0 °F - 33.1 °F 89% 30.18 in 10.0 mi Calm Calm - N/A   Clear
7:55 PM 33.6 °F - 31.3 °F 91% 30.19 in 10.0 mi NW 1.2 mph - N/A   Clear
8:55 PM 32.7 °F - 30.6 °F 92% 30.20 in 10.0 mi North 1.2 mph - N/A   Clear
9:55 PM 30.2 °F - 28.4 °F 93% 30.20 in 10.0 mi NE 1.2 mph - N/A   Clear
10:55 PM 29.1 °F - 26.8 °F 91% 30.21 in 10.0 mi NNW 2.3 mph - N/A   Clear
11:55 PM 28.4 °F - 26.6 °F 93% 30.21 in 7.0 mi Calm Calm - N/A   Clear